Location: Perryvale
(54.4667°N, 113.3833°W)
Time: 22:19:21
(UTC+00:00)

SR - Pass Details

Date: 19 May 2024
Orbit: 580 x 858 km, 66.7° (Epoch: 13 June)

Event Time Altitude Azimuth Distance (km) Brightness Sun altitude
Rises 08:22:13 0° 314° (NW) 2,985 ? -14.8°
Reaches altitude 10° 08:24:53 10° 327° (NNW) 2,027 ? -14.7°
Maximum altitude 08:28:46 27° 26° (NNE) 1,182 ? -14.6°
Drops below altitude 10° 08:32:28 10° 85° (E) 1,928 ? -14.4°
Sets 08:34:56 0° 98° (E) 2,809 ? -14.3°
